Weather in Sym

Russia / Krasnoyarsk Krai     60°20′47″N   88°21′41″E
temp.,
°C
wind,
m/s
gust,
m/s
humid.,
%
clouds,
%
prec.,
mm/h
press.,
hPa
HPBL,
m
8 march, mon
mon801:00−11wsw4994100 0.1 1014330
04:00−16sw349875 0.0 101687
07:00−16ssw239779 0.0 101762
10:00−12sse4994100 0.0 1014279
13:00−8se61293100 0.4 1009848
16:00−6sse71494100 2.8 1002988
19:00−3s71694100 5.4 9971164
22:00−1ssw81695100 2.4 9931409
9 march, tue
tue901:00−10wsw7168398 3.2 995939
04:00−12wsw8168594 0.0 10011068
07:00−13wsw7158897 0.1 1005953
10:00−13wsw71388100 0.0 1010794
13:00−11wsw61186100 0.1 10131120
16:00−10wsw61086100 0.1 10141251
19:00−11sw41093100 0.3 1015613
22:00−13ssw3109593 0.0 1015282
10 march, wed
wed1001:00−11ssw3109596 0.1 1013464
04:00−10ssw3996100 0.4 1010629
07:00−10sw3996100 1.5 1009663
10:00−10wsw4891100 0.5 1010774
13:00−8wsw4688100 0.6 1012785
16:00−8sw4788100 0.1 1013754
19:00−9ssw3992100 0.2 1012547
22:00−10s3995100 0.0 1011289
11 march, thu
thu1101:00−12sse2597100 0.1 1009138
04:00−11ese3696100 0.1 1004248
07:00−10e4895100 1.6 998340
10:00−8ene2496100 2.6 993318
13:00−4nne2394100 3.0 992353
16:00−5wnw5895100 1.4 995656
19:00−7w3895100 1.9 1001370
22:00−11w229694 0.2 100655
12 march, fri
fri1201:00−15ssw009897 0.3 100720
04:00−11s2797100 0.5 1008303
07:00−12sw41193100 0.9 1008535
10:00−12sw4892100 0.1 1007642
13:00−10wsw3589100 0.2 1007736
16:00−9wsw4785100 0.2 10081000
19:00−13wsw369095 0.3 101094
22:00−15wsw279495 0.1 1013208